• In Hungary
  • List of Countries
  • For 7 days
  • Water Temperature
  • Satellite Maps
  • Weather Map
  • News
  • Weather Widgets
  • user-avatar
    Login

    Hourly Weather Lillehammer

    Today, 21 November, Tuesday

    Time Temperature Precipitation Wind Pressure Humidity
    00:00 -9°C° 0 mm 1 mps 711 mmHg 92%
    01:00 -10°C° 0 mm 1 mps 711 mmHg 91%
    02:00 -10°C° 0 mm 1 mps 712 mmHg 90%
    03:00 -10°C° 0 mm 1 mps 712 mmHg 89%
    04:00 -10°C° 0 mm 1 mps 712 mmHg 88%
    05:00 -11°C° 0 mm 1 mps 712 mmHg 87%
    06:00 -11°C° 0 mm 1 mps 712 mmHg 86%
    07:00 -11°C° 0 mm 1 mps 712 mmHg 85%
    08:00 -11°C° 0 mm 1 mps 712 mmHg 84%
    09:00 -11°C° 0 mm 1 mps 712 mmHg 82%
    10:00 -11°C° 0 mm 1 mps 712 mmHg 81%
    11:00 -10°C° 0 mm 1 mps 712 mmHg 79%
    12:00 -9°C° 0 mm 1 mps 713 mmHg 78%
    13:00 -9°C° 0 mm 0 mps 712 mmHg 76%
    14:00 -10°C° 0 mm 0 mps 712 mmHg 77%
    15:00 -11°C° 0 mm 0 mps 712 mmHg 79%
    16:00 -11°C° 0 mm 1 mps 712 mmHg 80%
    17:00 -12°C° 0 mm 0 mps 712 mmHg 81%
    18:00 -12°C° 0 mm 0 mps 712 mmHg 81%
    19:00 -12°C° 0 mm 0 mps 712 mmHg 82%
    20:00 -12°C° 0 mm 0 mps 712 mmHg 82%
    21:00 -12°C° 0 mm 0 mps 712 mmHg 82%
    22:00 -12°C° 0 mm 0 mps 712 mmHg 82%
    23:00 -12°C° 0 mm 0 mps 711 mmHg 83%

    Tomorrow, 22 November, Wednesday

    Time Temperature Precipitation Wind Pressure Humidity
    00:00 -12°C° 0 mm 0 mps 711 mmHg 84%
    01:00 -12°C° 0 mm 1 mps 711 mmHg 85%
    02:00 -11°C° 0 mm 1 mps 710 mmHg 85%
    03:00 -11°C° 0 mm 1 mps 710 mmHg 85%
    04:00 -11°C° 0 mm 1 mps 710 mmHg 86%
    05:00 -10°C° 0.4 mm 1 mps 709 mmHg 88%
    06:00 -10°C° 0.4 mm 1 mps 709 mmHg 89%
    07:00 -10°C° 0.4 mm 1 mps 708 mmHg 91%
    08:00 -10°C° 0.8 mm 1 mps 708 mmHg 92%
    09:00 -12°C° 0.8 mm 2 mps 708 mmHg 93%
    10:00 -10°C° 0.8 mm 2 mps 707 mmHg 94%
    11:00 -10°C° 0.7 mm 2 mps 707 mmHg 94%
    12:00 -9°C° 0.7 mm 2 mps 706 mmHg 94%
    13:00 -8°C° 0.7 mm 2 mps 706 mmHg 94%
    14:00 -8°C° 0.6 mm 2 mps 705 mmHg 94%
    15:00 -8°C° 0.6 mm 2 mps 705 mmHg 94%
    16:00 -7°C° 0.6 mm 2 mps 704 mmHg 94%
    17:00 -7°C° 0.6 mm 2 mps 704 mmHg 95%
    18:00 -6°C° 0.6 mm 2 mps 703 mmHg 95%
    19:00 -6°C° 0.6 mm 2 mps 703 mmHg 96%
    20:00 -5°C° 1.3 mm 2 mps 702 mmHg 96%
    21:00 -5°C° 1.3 mm 2 mps 701 mmHg 96%
    22:00 -4°C° 1.3 mm 2 mps 700 mmHg 97%
    23:00 -3°C° 2 mm 2 mps 699 mmHg 97%

    Day after tomorrow, 23 November, Thursday

    Time Temperature Precipitation Wind Pressure Humidity
    00:00 -2°C° 2 mm 2 mps 698 mmHg 97%
    01:00 -2°C° 2 mm 3 mps 697 mmHg 97%
    02:00 -1°C° 2.3 mm 3 mps 696 mmHg 97%
    03:00 0°C° 2.3 mm 3 mps 695 mmHg 97%
    04:00 0°C° 2.3 mm 4 mps 694 mmHg 97%
    05:00 0°C° 1.4 mm 4 mps 694 mmHg 98%
    06:00 +1°C° 1.4 mm 4 mps 694 mmHg 98%
    07:00 +1°C° 1.4 mm 5 mps 693 mmHg 98%
    08:00 +2°C° 0.6 mm 5 mps 693 mmHg 98%
    09:00 +2°C° 0.6 mm 5 mps 693 mmHg 98%
    10:00 +2°C° 0.6 mm 6 mps 693 mmHg 98%
    11:00 +2°C° 0.8 mm 6 mps 693 mmHg 98%
    12:00 +2°C° 0.8 mm 6 mps 693 mmHg 98%
    13:00 +2°C° 0.8 mm 6 mps 693 mmHg 98%
    14:00 +2°C° 0.9 mm 6 mps 693 mmHg 98%
    15:00 +2°C° 0.9 mm 6 mps 692 mmHg 98%
    16:00 +2°C° 0.9 mm 5 mps 692 mmHg 98%
    17:00 +2°C° 0.2 mm 6 mps 692 mmHg 96%
    18:00 +2°C° 0.2 mm 6 mps 693 mmHg 94%
    19:00 +2°C° 0.2 mm 7 mps 693 mmHg 92%
    20:00 +1°C° 0 mm 6 mps 693 mmHg 92%
    21:00 -1°C° 0 mm 6 mps 693 mmHg 91%
    22:00 -2°C° 0 mm 6 mps 693 mmHg 91%
    23:00 -2°C° 0.3 mm 7 mps 693 mmHg 89%

    24 November, Friday

    Time Temperature Precipitation Wind Pressure Humidity
    00:00 -1°C° 0.3 mm 7 mps 692 mmHg 88%
    01:00 -1°C° 0.3 mm 8 mps 691 mmHg 87%
    02:00 -1°C° 0.4 mm 7 mps 692 mmHg 84%
    03:00 -1°C° 0.4 mm 7 mps 692 mmHg 81%
    04:00 -1°C° 0.4 mm 6 mps 692 mmHg 78%
    05:00 -1°C° 0 mm 6 mps 694 mmHg 79%
    06:00 0°C° 0 mm 5 mps 695 mmHg 80%
    07:00 -1°C° 0 mm 5 mps 697 mmHg 81%
    08:00 -1°C° 0 mm 5 mps 698 mmHg 81%
    09:00 -2°C° 0 mm 4 mps 699 mmHg 82%
    10:00 -3°C° 0 mm 4 mps 700 mmHg 83%
    11:00 -3°C° 0 mm 4 mps 700 mmHg 84%
    12:00 -2°C° 0 mm 3 mps 701 mmHg 84%
    13:00 -2°C° 0 mm 3 mps 702 mmHg 84%
    14:00 -2°C° 0 mm 3 mps 702 mmHg 85%
    15:00 -3°C° 0 mm 4 mps 702 mmHg 86%
    16:00 -4°C° 0 mm 4 mps 702 mmHg 87%
    17:00 -4°C° 0 mm 4 mps 703 mmHg 86%
    18:00 -4°C° 0 mm 4 mps 703 mmHg 84%
    19:00 -4°C° 0 mm 4 mps 704 mmHg 83%
    20:00 -5°C° 0 mm 4 mps 704 mmHg 84%
    21:00 -5°C° 0 mm 3 mps 705 mmHg 86%
    22:00 -6°C° 0 mm 3 mps 705 mmHg 87%
    23:00 -5°C° 0 mm 2 mps 706 mmHg 88%

    25 November, Saturday

    Time Temperature Precipitation Wind Pressure Humidity
    00:00 -6°C° 0 mm 2 mps 706 mmHg 89%
    01:00 -4°C° 0 mm 1 mps 706 mmHg 90%
    02:00 -4°C° 0 mm 1 mps 706 mmHg 91%
    03:00 -4°C° 0 mm 1 mps 706 mmHg 91%
    04:00 -4°C° 0 mm 1 mps 706 mmHg 92%
    05:00 -4°C° 0.1 mm 1 mps 705 mmHg 93%
    06:00 -3°C° 0.1 mm 1 mps 705 mmHg 93%
    07:00 -3°C° 0.1 mm 1 mps 704 mmHg 93%
    08:00 -3°C° 0.8 mm 1 mps 704 mmHg 94%
    09:00 -4°C° 0.8 mm 2 mps 703 mmHg 94%
    10:00 -4°C° 0.8 mm 2 mps 702 mmHg 95%
    11:00 -4°C° 1.2 mm 2 mps 701 mmHg 95%
    12:00 -3°C° 1.2 mm 2 mps 700 mmHg 95%
    13:00 -3°C° 1.2 mm 2 mps 698 mmHg 95%
    14:00 -3°C° 0.8 mm 2 mps 697 mmHg 95%
    15:00 -3°C° 0.8 mm 2 mps 696 mmHg 95%
    16:00 -3°C° 0.8 mm 2 mps 695 mmHg 95%
    17:00 -1°C° 0.8 mm 1 mps 694 mmHg 96%
    18:00 -1°C° 0.8 mm 1 mps 693 mmHg 96%
    19:00 -1°C° 0.8 mm 1 mps 693 mmHg 96%
    20:00 0°C° 0.6 mm 1 mps 693 mmHg 96%
    21:00 0°C° 0.6 mm 1 mps 693 mmHg 96%
    22:00 0°C° 0.6 mm 1 mps 693 mmHg 96%
    23:00 -3°C° 0.2 mm 2 mps 694 mmHg 95%

    26 November, Sunday

    Time Temperature Precipitation Wind Pressure Humidity
    00:00 -3°C° 0.2 mm 2 mps 695 mmHg 93%
    01:00 -4°C° 0.2 mm 2 mps 695 mmHg 92%
    02:00 -4°C° 0.1 mm 2 mps 696 mmHg 91%
    03:00 -4°C° 0.1 mm 2 mps 697 mmHg 90%
    04:00 -4°C° 0.1 mm 2 mps 697 mmHg 89%
    05:00 -5°C° 0.1 mm 2 mps 698 mmHg 90%
    06:00 -5°C° 0.1 mm 2 mps 698 mmHg 91%
    07:00 -6°C° 0.1 mm 2 mps 698 mmHg 92%
    08:00 -6°C° 0 mm 2 mps 699 mmHg 92%
    09:00 -4°C° 0 mm 1 mps 699 mmHg 92%
    10:00 -6°C° 0 mm 1 mps 699 mmHg 92%
    11:00 -6°C° 0 mm 1 mps 699 mmHg 91%
    12:00 -4°C° 0 mm 1 mps 699 mmHg 91%
    13:00 -4°C° 0 mm 1 mps 699 mmHg 90%
    14:00 -6°C° 0 mm 1 mps 699 mmHg 90%
    15:00 -6°C° 0 mm 1 mps 699 mmHg 90%
    16:00 -7°C° 0 mm 1 mps 699 mmHg 89%
    17:00 -6°C° 0 mm 1 mps 699 mmHg 89%
    18:00 -6°C° 0 mm 1 mps 699 mmHg 89%
    19:00 -6°C° 0 mm 1 mps 699 mmHg 88%
    20:00 -7°C° 0 mm 1 mps 700 mmHg 88%
    21:00 -7°C° 0 mm 1 mps 700 mmHg 87%
    22:00 -7°C° 0 mm 1 mps 700 mmHg 87%
    23:00 -7°C° 0.1 mm 1 mps 700 mmHg 87%
    Show more